Regional Weather Roundup
Issued by NWS Little Rock, AR

Home | Current Version | Previous Version | Text Only | Print | Product List | Glossary Off
Versions: 1 2 3 4 5 6 7 8 9 10 11 12 13 14 15 16 17 18 19 20 21 22 23 24 25 26 27 28 29 30 31 32

000
ASUS44 KLZK 191705
RWRLZK

WEATHER ROUNDUP FOR ARKANSAS
NATIONAL WEATHER SERVICE LITTLE ROCK AR
1200 PM CDT WED JUL 19 2017

NOTE: "FAIR" INDICATES FEW OR NO CLOUDS BELOW 12,000 FEET WITH NO
SIGNIFICANT WEATHER AND/OR OBSTRUCTIONS TO VISIBILITY.

ARZ001-003-010-029-191800-
NORTHWEST ARKANSAS

CITY           SKY/WX    TMP DP  RH WIND       PRES   REMARKS
FAYETTEVILLE   MOSUNNY   88  71  57 VRB3      30.19S HX  94
FORT SMITH     SUNNY     92  80  68 CALM      30.14F HX 110
HARRISON       MOSUNNY   90  68  48 VRB5      30.20S HX  94
BENTONVILLE    MOSUNNY   88  72  58 CALM      30.20F HX  94
ROGERS         SUNNY     89  72  56 NW5       30.20F HX  96
SILOAM SPGS    MOSUNNY   90  70  51 SW5       30.18S HX  95
HIGHFILL       MOSUNNY   90  71  53 S7        30.19S HX  96
SPRINGDALE     MOSUNNY   88  70  55 W8        30.21S HX  92
$$

ARZ004-005-016-191800-
NORTH CENTRAL ARKANSAS

CITY           SKY/WX    TMP DP  RH WIND       PRES   REMARKS
BATESVILLE     MOSUNNY   91  73  55 W3        30.15S HX 100
FLIPPIN        PTSUNNY   90  68  48 N5        30.14F HX  93
MTN HOME       SUNNY     88  74  63 VRB3      30.17F HX  96
$$

ARZ040-041-191800-
WEST CENTRAL ARKANSAS

CITY           SKY/WX    TMP DP  RH WIND       PRES   REMARKS
MENA           MOSUNNY   91  79  66 W9        30.18S HX 107
MOUNT IDA      MOSUNNY   91  68  46 VRB5      30.14S HX  95
$$

ARZ009-017-025-026-028-191800-
NORTHEAST ARKANSAS

CITY           SKY/WX    TMP DP  RH WIND       PRES   REMARKS
CORNING        LGT RAIN  91  77  62 SW6       30.14F HX 105
JONESBORO      MOSUNNY   93  74  53 W8        30.14F HX 103
WALNUT RIDGE   PTSUNNY   91  73  55 SW5       30.13F HX 100
BLYTHEVILLE    SUNNY     92  76  59 NW8       30.15F HX 104
$$

ARZ022-023-033-042-044-191800-
CENTRAL ARKANSAS

CITY           SKY/WX    TMP DP  RH WIND       PRES   REMARKS
LITTLE ROCK    PTSUNNY   93  73  52 S7        30.15S HX 102
N LITTLE ROCK    N/A     89  75  62 CALM      30.14S HX  98
JACKSONVILLE   MOSUNNY   91  76  61 CALM      30.15S HX 103
CONWAY           N/A     93  75  55 VRB5      30.13S HX 104
SEARCY         CLOUDY    92  77  61 CALM      30.16F HX 105
HOT SPRINGS    MOSUNNY   93  74  53 S8        30.15S HX 103
RUSSELLVILLE   SUNNY     91  75  59 E3        30.14F HX 101
CLINTON        PTSUNNY   88  75  66 CALM      30.15F HX  97
$$

ARZ036-191800-
EAST ARKANSAS

CITY           SKY/WX    TMP DP  RH WIND       PRES   REMARKS
WEST MEMPHIS   SUNNY     91  74  57 W6        30.13F HX 100
$$

ARZ050-053-066-070-073-191800-
SOUTHWEST ARKANSAS

CITY           SKY/WX    TMP DP  RH WIND       PRES   REMARKS
ARKADELPHIA    FAIR      91  77  63 CALM      30.15R HX 104
CAMDEN         MOSUNNY   95  73  49 SE3       30.14S HX 105
TEXARKANA      PTSUNNY   90  75  61 W5        30.15S HX 100
EL DORADO      MOSUNNY   92  72  51 VRB3      30.15F HX  99
DE QUEEN       MOSUNNY   91  80  70 VRB5      30.13S HX 109
$$

ARZ056-057-069-191800-
SOUTHEAST ARKANSAS

CITY           SKY/WX    TMP DP  RH WIND       PRES   REMARKS
PINE BLUFF     MOSUNNY   93  73  52 VRB5      30.15S HX 102
STUTTGART      PTSUNNY   91  66  43 W6        30.16S HX  94
MONTICELLO     CLOUDY    91  76  61 SW5       30.15S HX 103

$$






USA.gov is the U.S. government's official web portal to all federal, state and local government web resources and services.